Wind_Speed
6 4 3 2 2 2 3 5 7 5 2 2 2 4 4 4 3 2 4 5 6 6 6 8 10 12 13 13 14 13 12 10 9 9 11 9 6 4 3 3 3 4 6 7 10 12 11 11 11
5 5 3 2 2 2 4 6 9 8 4 2 3 4 4 2 0 0 2 4 6 7 7 8 10 12 13 12 13 12 12 11 10 12 11 9 5 3 3 4 5 7 8 9 11 12 13 12 12
3 2 2 1 5 5 8 8 8 8 7 5 3 4 4 2 2 2 1 4 6 8 8 8 11 12 13 13 12 12 11 11 11 11 9 8 5 4 4 6 7 8 9 10 10 12 13 14 13
2 1 3 3 5 6 10 12 10 7 7 8 7 4 3 3 1 1 2 6 8 8 7 9 12 13 14 14 13 12 11 12 11 9 7 7 5 2 3 4 8 10 11 11 12 13 14 14 14
1 3 5 5 6 8 10 14 14 12 8 8 9 8 6 3 2 2 3 7 9 9 8 10 12 13 13 15 15 13 12 11 10 8 7 7 6 4 3 5 7 12 15 14 14 15 15 15 15
3 5 4 2 8 10 10 11 15 16 13 9 9 10 9 6 5 5 6 6 9 9 9 10 13 14 15 15 16 15 14 13 12 10 8 9 8 6 6 6 6 10 14 15 16 16 16 16 16
5 6 4 7 10 12 13 12 13 16 16 12 7 9 9 6 7 6 7 8 8 10 11 14 15 16 17 17 17 17 17 15 14 13 11 10 10 9 8 8 7 8 11 13 15 16 16 15 15
8 8 8 9 10 12 15 15 14 15 16 14 9 9 9 7 8 7 7 9 10 13 14 17 18 16 17 18 18 19 18 17 15 13 12 11 12 10 9 8 7 7 9 11 14 16 16 16 16
11 11 11 12 11 12 14 17 17 16 16 15 12 9 8 6 6 6 6 8 11 14 17 21 22 17 16 18 20 20 19 17 16 15 13 13 12 10 8 7 7 7 8 10 12 14 15 15 16
15 14 13 13 14 15 17 18 19 19 17 13 11 8 5 3 3 4 6 9 13 17 20 22 21 19 18 19 20 21 20 18 17 17 15 14 11 10 8 7 8 8 8 9 10 12 14 14 15
19 17 15 14 15 16 20 21 20 19 18 12 9 6 3 2 2 5 8 11 15 19 21 23 21 21 21 21 21 21 21 20 18 18 17 14 11 9 7 7 8 9 8 7 7 8 11 15 15
21 20 15 14 16 16 20 22 20 18 16 11 7 5 4 6 7 9 12 14 18 21 23 23 22 20 21 22 20 20 21 21 19 18 16 12 10 9 8 8 9 8 7 6 6 6 8 12 14
23 22 20 20 19 16 20 22 20 17 14 10 7 6 5 7 10 13 15 19 22 23 24 25 25 21 21 19 19 18 19 19 17 16 14 11 10 10 10 9 10 9 8 6 6 7 6 9 11
26 26 26 26 25 19 20 20 18 14 11 12 10 9 8 10 12 14 18 22 24 24 24 27 26 24 23 21 19 18 17 17 15 14 12 11 10 11 11 10 11 11 9 7 7 8 6 7 8
31 30 28 23 21 19 18 20 15 12 11 12 12 13 13 14 16 18 21 23 25 23 22 26 25 23 22 21 18 16 16 16 14 13 14 11 10 12 12 11 13 13 12 9 10 10 7 8 8
34 27 23 23 22 19 17 17 17 12 10 11 12 14 16 17 19 22 24 25 25 25 23 22 24 23 22 21 15 13 15 16 14 13 14 12 11 13 13 13 15 14 12 10 11 11 9 9 7
30 24 21 23 24 21 17 12 15 13 11 11 12 14 16 18 20 23 25 27 27 27 25 22 23 23 22 19 18 16 15 16 15 14 14 14 13 14 15 16 16 14 13 12 13 12 9 10 8
25 21 21 22 20 19 17 13 14 14 13 12 13 14 16 18 20 22 25 27 28 28 25 22 21 19 17 18 19 17 16 16 17 17 17 16 17 18 19 18 17 16 15 14 13 13 13 13 10
29 24 19 16 15 17 17 16 16 16 15 14 15 16 18 19 19 22 25 26 27 27 24 20 17 15 15 16 18 17 16 18 20 22 23 21 20 22 23 22 19 17 15 14 14 14 16 13 11
27 19 15 14 17 19 19 17 17 17 14 14 16 16 19 20 20 22 25 26 27 26 23 20 18 18 18 19 20 19 20 20 21 22 22 22 21 23 25 23 21 20 19 16 16 18 17 14 12
22 19 18 20 21 23 23 19 18 17 14 13 14 15 18 21 22 23 24 25 26 26 23 21 21 23 23 22 22 21 21 21 21 22 22 23 23 24 25 25 24 22 23 21 20 20 19 18 14
20 22 23 24 24 24 25 21 19 21 17 14 12 13 15 19 23 25 26 25 24 23 22 23 24 25 25 24 22 20 20 21 22 21 21 23 24 26 27 26 23 23 24 22 22 23 22 19 17
22 24 25 25 26 25 25 25 20 22 19 16 12 12 15 19 23 27 29 27 25 24 24 25 26 27 26 24 22 20 20 20 20 19 21 23 23 25 27 26 24 24 25 24 22 23 22 20 19
21 21 22 24 24 23 23 24 20 21 19 17 14 16 19 22 25 26 27 27 26 25 25 26 26 25 25 24 23 23 21 19 19 19 22 23 23 25 27 26 27 27 27 26 23 23 22 19 19
22 21 21 22 23 20 22 23 20 19 20 20 20 20 22 25 28 27 26 26 26 26 24 22 21 21 21 21 22 22 21 18 17 17 20 22 23 26 28 27 29 27 26 27 26 27 27 24 22
21 20 21 22 24 24 24 24 20 21 22 23 23 23 24 27 30 29 28 27 26 24 20 19 19 19 18 18 19 19 18 17 16 16 18 19 21 26 27 26 28 28 27 27 27 27 27 26 25
22 20 22 25 26 26 25 25 24 24 24 24 24 25 28 29 29 28 29 28 22 18 16 16 18 18 17 16 15 15 16 16 16 17 18 19 20 22 25 25 26 27 30 31 31 30 29 28 27
20 20 21 23 24 24 23 23 24 24 24 25 26 27 30 30 29 27 26 24 18 15 15 16 17 17 17 16 14 14 14 15 16 18 19 20 21 22 25 26 26 27 29 30 30 31 31 32 31
19 20 21 22 23 24 24 23 22 24 26 27 26 28 30 27 24 23 19 17 15 15 15 16 16 16 16 16 16 15 16 16 17 18 20 21 22 23 25 27 29 29 29 29 28 28 27 27 27
21 19 20 22 25 27 27 25 22 24 26 26 28 29 28 23 22 22 18 16 15 16 16 17 17 16 17 17 17 17 17 18 18 18 19 21 23 23 24 25 26 27 27 26 25 24 21 22 23
Wind_Direction
138 126 119 130 49 317 316 345 347 345 297 279 309 294 290 296 321 310 340 14 14 2 353 350 347 346 343 340 334 329 329 330 326 324 326 323 314 301 288 268 214 184 177 192 208 215 218 219 219
125 124 122 113 9 314 359 10 1 350 332 307 319 307 292 295 333 205 355 19 21 17 7 0 353 350 345 339 335 327 323 324 324 324 328 329 314 283 260 246 225 205 195 199 207 215 220 221 222
116 131 168 169 318 345 0 2 360 348 337 319 328 336 299 319 142 154 72 30 24 19 8 2 357 349 340 331 325 319 316 319 324 326 333 344 324 272 251 235 226 216 210 213 217 219 221 222 221
139 254 263 273 303 349 357 350 354 355 343 325 319 334 309 327 339 123 54 24 17 13 5 4 359 347 335 327 317 309 307 313 321 326 328 344 344 292 242 245 238 229 223 221 225 226 223 221 220
223 265 267 279 322 340 349 344 344 349 346 331 319 316 316 298 295 333 10 6 5 5 2 359 350 339 328 323 314 302 296 302 312 317 313 319 325 312 278 274 251 236 233 231 233 229 222 217 215
261 282 261 290 323 324 339 344 339 333 334 337 316 307 306 293 286 316 343 351 354 359 1 350 340 331 320 316 313 302 293 296 300 301 299 302 304 297 291 283 256 232 230 234 237 228 218 215 214
251 284 292 335 342 337 339 338 335 327 324 328 320 291 290 285 279 304 328 336 349 355 353 345 336 328 321 313 306 300 297 301 301 299 300 304 300 292 282 278 261 232 226 229 229 224 219 217 218
254 271 292 327 331 331 330 331 333 324 317 324 318 290 287 287 284 294 319 328 342 352 346 334 326 319 315 312 303 296 296 300 301 301 303 308 304 293 280 273 259 234 222 228 234 235 232 229 229
260 270 287 310 314 316 324 328 332 328 319 320 319 294 282 279 272 284 316 324 337 343 336 328 320 312 309 306 303 299 297 297 295 295 297 306 308 293 277 263 250 233 226 233 239 239 237 234 232
257 268 284 302 307 312 322 325 331 330 324 323 321 300 281 266 252 294 323 329 339 336 329 323 313 307 309 305 300 300 301 296 290 288 287 296 302 294 279 255 230 227 230 233 235 233 233 232 230
255 262 274 290 294 307 317 317 325 325 323 323 313 302 284 278 302 336 329 327 333 332 326 321 313 308 311 306 296 298 301 296 289 283 279 283 290 288 275 242 226 228 229 231 235 234 238 237 231
257 266 275 274 275 295 305 310 319 316 315 315 302 283 298 309 318 336 337 331 332 331 327 323 314 309 313 310 294 295 298 294 286 280 274 271 275 272 261 243 229 229 227 228 233 231 244 244 235
256 261 268 269 275 290 299 308 312 308 310 306 284 266 292 311 315 325 328 327 331 329 328 329 319 307 317 320 295 288 293 290 282 279 272 263 262 259 255 239 228 225 223 219 226 226 236 251 240
254 258 265 266 268 276 290 301 302 303 304 296 283 270 279 296 310 316 321 327 330 329 327 323 318 306 308 320 304 295 294 289 281 277 268 258 252 251 256 241 222 219 215 205 221 230 237 256 236
257 260 262 268 267 269 280 291 290 296 297 299 300 296 297 307 313 318 322 330 331 329 319 309 310 301 302 314 303 293 288 284 280 279 269 254 246 244 250 238 219 220 214 214 222 234 243 264 247
254 260 266 269 270 272 277 286 289 291 291 298 301 303 308 314 318 321 323 327 328 325 317 302 295 292 294 305 297 296 285 276 272 276 266 249 235 238 241 235 224 218 221 229 224 233 247 246 249
258 258 268 272 271 270 272 283 289 294 292 290 292 298 303 311 318 320 321 323 323 322 317 305 297 293 290 290 293 299 288 276 265 268 261 240 229 233 237 235 226 222 219 222 222 235 241 231 241
259 260 266 269 265 262 270 288 289 290 291 290 290 293 297 307 316 317 319 321 320 319 315 305 297 295 292 290 291 296 287 276 264 261 261 247 235 232 234 234 227 222 216 220 224 231 233 231 236
259 262 263 255 255 263 277 291 288 287 290 293 292 292 297 305 313 316 317 317 316 316 312 304 295 291 293 296 297 294 287 283 275 265 261 254 243 233 230 231 229 225 222 224 224 226 231 234 238
253 248 251 259 266 274 279 279 278 281 283 286 290 293 300 309 317 316 313 312 311 311 307 300 290 287 293 296 295 291 289 285 279 267 256 245 239 233 228 227 229 231 225 216 216 221 232 239 246
250 244 251 265 275 278 276 270 268 270 269 273 285 296 307 312 313 309 305 304 304 302 299 293 287 287 292 292 290 289 291 290 284 272 253 234 232 232 227 223 225 229 226 224 221 224 232 240 245
248 251 256 265 271 274 276 271 266 270 269 270 285 301 308 308 308 307 305 301 298 295 294 292 289 289 289 289 289 293 295 293 285 270 244 232 230 228 224 221 223 224 224 228 229 234 239 240 246
250 253 259 261 262 262 266 270 270 276 278 279 291 300 301 306 312 313 311 306 298 291 288 288 287 286 286 287 287 291 295 293 282 262 237 231 229 224 221 219 220 220 223 226 227 234 238 238 245
250 249 251 253 256 257 260 266 267 275 277 280 292 300 304 307 312 313 311 307 301 296 291 290 288 285 283 282 282 285 289 291 283 260 238 232 229 224 220 218 220 222 224 225 225 231 235 238 242
242 242 243 247 250 247 253 260 264 266 271 282 294 297 302 306 308 307 304 303 301 299 296 293 293 292 289 286 284 284 286 286 280 262 239 233 229 225 223 222 223 226 228 227 226 229 234 240 242
241 242 244 246 248 245 248 254 258 261 270 282 290 294 299 304 304 302 300 298 296 294 294 296 295 294 293 291 286 284 283 279 273 266 251 244 236 228 227 229 227 230 229 228 231 232 234 238 241
239 241 244 246 249 252 252 256 260 266 275 282 288 292 294 296 295 296 298 298 291 288 293 299 297 294 293 291 290 289 285 277 268 264 258 251 248 243 237 235 236 237 236 233 235 239 239 239 241
233 238 243 246 251 253 254 259 267 274 278 283 288 291 294 296 296 295 291 290 284 285 294 302 302 298 293 288 287 287 284 276 264 258 257 254 254 251 244 242 243 242 238 235 236 240 243 244 243
234 242 249 254 257 261 262 261 267 272 274 279 284 289 292 300 304 301 286 279 279 285 297 306 307 302 294 286 282 281 278 274 269 263 257 256 254 249 245 247 248 245 241 238 238 239 236 238 240
249 255 262 267 269 270 270 268 266 264 267 272 280 284 291 297 301 306 298 285 280 285 296 303 304 300 294 289 286 281 277 273 270 265 259 256 248 247 251 253 246 242 238 236 233 228 228 232 231
Height
5904 5904 5904 5905 5905 5905 5903 5902 5900 5899 5900 5900 5900 5899 5897 5896 5897 5899 5896 5893 5892 5891 5891 5890 5889 5888 5886 5884 5883 5882 5881 5881 5880 5879 5879 5877 5877 5876 5875 5875 5875 5875 5875 5875 5876 5878 5879 5880 5881
5904 5904 5904 5904 5904 5903 5903 5901 5899 5899 5899 5900 5899 5897 5896 5895 5895 5894 5893 5892 5891 5891 5890 5889 5889 5887 5885 5884 5882 5881 5880 5880 5879 5878 5877 5876 5875 5874 5874 5874 5875 5875 5875 5875 5876 5878 5879 5879 5880
5904 5904 5904 5904 5903 5903 5902 5901 5900 5899 5898 5898 5898 5897 5896 5895 5894 5893 5893 5892 5891 5890 5889 5888 5887 5886 5884 5883 5881 5880 5879 5878 5878 5877 5875 5874 5873 5872 5871 5872 5873 5874 5874 5875 5876 5877 5878 5878 5879
5905 5905 5905 5904 5903 5902 5901 5900 5901 5901 5899 5897 5897 5897 5896 5895 5895 5894 5893 5892 5890 5889 5888 5887 5886 5884 5883 5881 5879 5878 5877 5877 5876 5875 5874 5873 5872 5871 5870 5870 5871 5872 5873 5874 5875 5876 5877 5877 5877
5905 5905 5904 5904 5903 5902 5902 5900 5899 5900 5900 5898 5897 5896 5896 5896 5895 5893 5892 5891 5889 5888 5887 5885 5884 5883 5881 5879 5877 5876 5875 5874 5874 5873 5872 5871 5871 5870 5870 5869 5869 5870 5872 5873 5873 5874 5875 5875 5876
5906 5905 5905 5905 5904 5902 5901 5900 5898 5897 5897 5897 5896 5895 5895 5895 5893 5892 5891 5889 5888 5886 5885 5883 5882 5881 5879 5877 5875 5873 5872 5872 5871 5871 5869 5869 5868 5868 5868 5868 5868 5868 5869 5870 5871 5872 5873 5874 5875
5905 5904 5903 5904 5903 5900 5899 5899 5898 5895 5894 5895 5895 5893 5893 5892 5891 5890 5889 5887 5885 5884 5883 5882 5880 5879 5877 5875 5873 5871 5870 5869 5869 5868 5867 5866 5865 5865 5865 5865 5865 5865 5866 5867 5868 5870 5872 5873 5874
5903 5903 5901 5902 5901 5899 5897 5896 5896 5894 5892 5891 5891 5890 5890 5890 5888 5888 5887 5885 5883 5882 5880 5879 5878 5876 5874 5872 5870 5868 5867 5867 5866 5865 5865 5864 5862 5861 5861 5861 5862 5863 5864 5865 5866 5867 5869 5871 5872
5902 5903 5901 5901 5900 5899 5897 5895 5894 5893 5891 5889 5889 5887 5887 5887 5886 5886 5886 5884 5882 5880 5878 5876 5874 5872 5871 5869 5867 5865 5864 5864 5863 5862 5862 5861 5860 5858 5858 5858 5859 5860 5861 5862 5863 5864 5866 5867 5869
5900 5900 5900 5900 5899 5898 5896 5894 5892 5890 5888 5888 5887 5885 5884 5885 5885 5885 5885 5883 5880 5877 5875 5872 5871 5869 5868 5866 5864 5862 5861 5860 5860 5859 5859 5859 5857 5856 5856 5857 5857 5858 5858 5859 5860 5862 5863 5864 5866
5897 5898 5899 5899 5897 5895 5894 5892 5890 5887 5886 5886 5885 5883 5882 5883 5884 5883 5882 5881 5879 5876 5873 5870 5867 5865 5864 5863 5860 5859 5857 5856 5856 5855 5855 5856 5855 5855 5855 5855 5855 5856 5856 5857 5858 5859 5860 5860 5862
5895 5896 5897 5897 5895 5895 5892 5890 5888 5886 5884 5883 5883 5882 5881 5881 5881 5880 5879 5878 5876 5873 5870 5868 5864 5862 5860 5858 5857 5855 5853 5852 5852 5851 5851 5852 5852 5853 5853 5853 5853 5854 5855 5855 5856 5857 5858 5859 5860
5892 5893 5894 5893 5892 5892 5890 5888 5886 5883 5881 5881 5880 5880 5879 5878 5877 5877 5875 5873 5871 5868 5866 5863 5860 5858 5855 5853 5852 5851 5850 5848 5848 5848 5848 5848 5849 5850 5851 5851 5851 5852 5852 5853 5855 5855 5856 5857 5859
5889 5890 5890 5890 5890 5890 5888 5886 5884 5881 5879 5878 5878 5877 5877 5875 5874 5873 5872 5869 5866 5863 5861 5859 5855 5853 5851 5849 5848 5847 5846 5845 5845 5844 5844 5845 5846 5847 5849 5849 5849 5849 5850 5852 5853 5855 5856 5857 5857
5884 5886 5886 5886 5885 5886 5886 5884 5882 5879 5877 5875 5873 5873 5872 5871 5870 5869 5868 5865 5862 5859 5858 5855 5852 5849 5847 5845 5843 5843 5843 5842 5842 5841 5840 5842 5843 5844 5847 5847 5847 5848 5849 5851 5852 5853 5855 5856 5856
5879 5881 5881 5882 5881 5882 5884 5881 5878 5876 5874 5873 5871 5869 5868 5866 5866 5865 5863 5860 5857 5855 5853 5851 5847 5844 5842 5841 5840 5839 5839 5839 5839 5838 5837 5838 5840 5841 5844 5845 5845 5846 5848 5849 5850 5851 5853 5854 5855
5873 5875 5877 5878 5877 5878 5878 5877 5874 5872 5871 5870 5869 5867 5864 5862 5862 5860 5858 5855 5853 5850 5848 5845 5842 5839 5838 5838 5837 5836 5835 5835 5836 5835 5835 5835 5837 5838 5840 5843 5843 5844 5846 5848 5849 5850 5851 5852 5853
5869 5870 5871 5872 5872 5872 5872 5872 5870 5868 5868 5867 5866 5863 5860 5859 5858 5856 5853 5850 5847 5845 5842 5840 5837 5834 5833 5833 5833 5832 5831 5831 5831 5831 5831 5831 5833 5834 5836 5840 5842 5842 5843 5845 5846 5848 5850 5851 5852
5864 5865 5866 5867 5867 5867 5867 5866 5865 5864 5864 5863 5861 5859 5857 5856 5854 5851 5848 5845 5843 5840 5838 5836 5833 5831 5830 5829 5828 5827 5826 5826 5826 5826 5826 5826 5827 5829 5831 5836 5839 5840 5841 5842 5843 5846 5848 5850 5850
5857 5859 5861 5862 5862 5862 5862 5862 5860 5859 5859 5859 5857 5855 5852 5850 5849 5846 5843 5840 5838 5836 5834 5832 5830 5829 5827 5825 5824 5823 5822 5821 5820 5819 5820 5820 5821 5823 5826 5831 5834 5836 5838 5839 5841 5843 5845 5847 5848
5852 5854 5856 5857 5857 5856 5857 5857 5855 5854 5854 5855 5852 5850 5847 5845 5844 5842 5839 5836 5833 5831 5830 5828 5826 5824 5822 5821 5819 5818 5817 5816 5814 5813 5813 5814 5816 5818 5820 5824 5829 5832 5834 5836 5838 5840 5842 5844 5845
5848 5849 5850 5851 5852 5852 5851 5852 5851 5848 5849 5849 5848 5846 5844 5842 5840 5837 5834 5831 5829 5827 5825 5823 5821 5819 5817 5815 5813 5812 5812 5810 5808 5807 5807 5809 5811 5812 5814 5818 5823 5826 5829 5831 5833 5836 5838 5840 5841
5843 5844 5844 5845 5845 5845 5844 5845 5846 5844 5844 5844 5843 5842 5841 5839 5835 5830 5827 5825 5824 5822 5820 5818 5815 5813 5810 5809 5808 5808 5807 5805 5803 5802 5802 5803 5805 5807 5809 5812 5817 5820 5823 5826 5829 5831 5833 5835 5837
5837 5838 5838 5838 5838 5840 5839 5839 5840 5839 5839 5838 5837 5837 5835 5832 5828 5825 5822 5819 5817 5816 5814 5811 5808 5806 5804 5803 5802 5802 5801 5800 5799 5798 5797 5798 5800 5802 5804 5807 5811 5815 5818 5820 5823 5826 5829 5831 5833
5832 5833 5833 5833 5833 5835 5833 5833 5835 5833 5832 5831 5831 5830 5828 5826 5823 5820 5817 5814 5811 5809 5807 5804 5802 5799 5798 5796 5796 5796 5795 5795 5794 5793 5793 5794 5795 5797 5800 5803 5805 5808 5811 5814 5817 5821 5824 5826 5828
5826 5827 5828 5829 5828 5828 5827 5827 5828 5827 5826 5826 5825 5824 5822 5820 5817 5815 5812 5809 5806 5804 5801 5799 5797 5794 5793 5791 5790 5790 5790 5790 5790 5790 5790 5790 5791 5793 5794 5797 5799 5802 5804 5807 5811 5814 5817 5820 5822
5820 5821 5822 5822 5821 5822 5822 5822 5822 5821 5821 5820 5819 5818 5816 5815 5813 5810 5806 5803 5801 5799 5797 5795 5792 5790 5788 5786 5785 5784 5784 5784 5785 5785 5786 5786 5787 5788 5789 5791 5794 5796 5798 5800 5803 5806 5809 5813 5816
5815 5815 5815 5816 5816 5816 5816 5816 5816 5815 5815 5814 5814 5813 5811 5809 5807 5804 5800 5798 5796 5795 5793 5790 5787 5785 5783 5782 5781 5780 5779 5779 5779 5780 5780 5781 5782 5782 5784 5786 5788 5790 5791 5793 5796 5799 5802 5805 5808
5810 5810 5809 5809 5810 5810 5810 5812 5811 5810 5809 5809 5808 5807 5805 5803 5800 5797 5795 5793 5791 5790 5788 5786 5783 5781 5779 5777 5776 5776 5774 5773 5773 5773 5774 5775 5776 5776 5778 5779 5781 5782 5784 5787 5790 5792 5795 5797 5799
5803 5803 5803 5803 5803 5802 5802 5807 5804 5803 5802 5802 5802 5800 5798 5797 5795 5792 5790 5788 5787 5785 5784 5782 5780 5777 5776 5774 5772 5771 5770 5769 5768 5768 5769 5769 5770 5771 5772 5773 5774 5776 5778 5781 5784 5786 5788 5791 5792